Oscoda, MI

7:24 PM EDT on March 29, 2017 (GMT -0400)
Oscoda-Wurtsmith

Weather History for KOSC - July, 2013

Change the Weather History Date:

Saturday, July 6, 2013

  Actual Average Record
Temperature  
Mean Temperature 74 °F -  
Max Temperature 86 °F 75 °F 97 °F (2012)
Min Temperature 62 °F 55 °F 46 °F (2001)
Cooling Degree Days 9    
Growing Degree Days 24 (Base 50)    
Moisture  
Dew Point 64 °F    
Average Humidity 69    
Maximum Humidity 93    
Minimum Humidity 47    
Precipitation  
Precipitation 0.00 in - - ()
Sea Level Pressure  
Sea Level Pressure 30.04 in    
Wind  
Wind Speed 6 mph (SSW)    
Max Wind Speed 14 mph    
Max Gust Speed 22 mph    
Visibility 9 miles    
Events      
Averages and records for this station are not official NWS values.
T = Trace of Precipitation, MM = Missing Value Source: NWS Daily Summary

Daily Weather History Graph

Daily Weather History Graph

Search for Another Location

Airport or City:

Trip Planner

Search our weather history database for the weather conditions in past years. The results will help you decide how hot, cold, wet, or windy it might be!

Date:

Astronomy

Jul. 06, 2013 Rise Set
Actual Time 5:56 AM EDT 9:20 PM EDT
Civil Twilight 5:19 AM EDT 9:56 PM EDT
Nautical Twilight 4:32 AM EDT 10:43 PM EDT
Astronomical Twilight 3:32 AM EDT 11:43 PM EDT
Moon 4:43 AM EDT (7/6) 7:58 PM EDT (7/6)
Length of Visible Light 16h 36m
Length of Day
15h 24m
Waning Crescent, 2% of the Moon is Illuminated
Jul 6
Waning Crescent
Jul 8
New
Jul 15
First Quarter
Jul 22
Full
Jul 29
Last Quarter

Hourly Weather History & Observations

Time (EDT) Temp. Heat Index Dew Point Humidity Pressure Visibility Wind Dir Wind Speed Gust Speed Precip Events Conditions
12:14 AM 69.3 °F - 64.2 °F 84% 30.06 in 10.0 mi SSW 3.5 mph - N/A   Clear
12:33 AM 69.3 °F - 64.4 °F 84% 30.06 in 10.0 mi SSW 6.9 mph - N/A   Clear
12:54 AM 68.5 °F - 63.5 °F 84% 30.06 in 10.0 mi SW 6.9 mph - N/A   Clear
1:14 AM 67.1 °F - 62.8 °F 86% 30.06 in 10.0 mi SW 5.8 mph - N/A   Clear
1:33 AM 66.6 °F - 62.6 °F 87% 30.06 in 10.0 mi SW 4.6 mph - N/A   Clear
1:54 AM 66.6 °F - 62.8 °F 88% 30.06 in 10.0 mi SSW 4.6 mph - N/A   Clear
2:14 AM 67.3 °F - 62.8 °F 85% 30.06 in 10.0 mi SSW 4.6 mph - N/A   Clear
2:33 AM 68.0 °F - 63.0 °F 84% 30.06 in 10.0 mi SSW 5.8 mph - N/A   Clear
2:54 AM 65.7 °F - 62.1 °F 88% 30.05 in 10.0 mi SW 4.6 mph - N/A   Clear
3:14 AM 63.3 °F - 61.3 °F 93% 30.06 in 7.0 mi SW 4.6 mph - N/A   Clear
3:33 AM 65.5 °F - 62.2 °F 89% 30.06 in 10.0 mi SW 3.5 mph - N/A   Clear
3:54 AM 63.5 °F - 61.2 °F 92% 30.06 in 7.0 mi WSW 3.5 mph - N/A   Clear
4:14 AM 64.2 °F - 61.7 °F 91% 30.06 in 7.0 mi SSW 3.5 mph - N/A   Clear
4:33 AM 66.0 °F - 62.1 °F 87% 30.06 in 10.0 mi SSW 5.8 mph - N/A   Clear
4:54 AM 63.9 °F - 60.6 °F 89% 30.06 in 7.0 mi Calm Calm - N/A   Clear
5:14 AM 64.0 °F - 61.0 °F 90% 30.06 in 7.0 mi Calm Calm - N/A   Clear
5:33 AM 63.0 °F - 60.8 °F 93% 30.07 in 7.0 mi Calm Calm - N/A   Clear
5:54 AM 62.8 °F - 60.8 °F 93% 30.07 in 5.0 mi Calm Calm - N/A   Clear
6:14 AM 63.0 °F - 61.0 °F 93% 30.08 in 5.0 mi Calm Calm - N/A   Clear
6:33 AM 62.4 °F - 60.3 °F 93% 30.09 in 5.0 mi Calm Calm - N/A   Clear
6:54 AM 64.2 °F - 61.5 °F 91% 30.09 in 7.0 mi Calm Calm - N/A   Clear
7:14 AM 65.1 °F - 62.4 °F 91% 30.09 in 7.0 mi WSW 4.6 mph - N/A   Clear
7:34 AM 66.2 °F - 63.0 °F 89% 30.09 in 7.0 mi WSW 4.6 mph - N/A   Clear
7:54 AM 68.2 °F - 63.7 °F 85% 30.09 in 7.0 mi SSW 4.6 mph - N/A   Clear
8:14 AM 70.5 °F - 63.9 °F 79% 30.08 in 10.0 mi SW 5.8 mph - N/A   Clear
8:34 AM 73.0 °F - 64.0 °F 73% 30.08 in 10.0 mi SSW 4.6 mph - N/A   Clear
8:54 AM 74.7 °F - 62.6 °F 66% 30.08 in 10.0 mi SW 4.6 mph - N/A   Clear
9:14 AM 77.4 °F - 63.5 °F 62% 30.08 in 10.0 mi WSW 6.9 mph - N/A   Clear
9:34 AM 78.1 °F - 63.7 °F 61% 30.08 in 10.0 mi SW 8.1 mph - N/A   Clear
9:54 AM 79.7 °F - 63.7 °F 58% 30.07 in 10.0 mi SW 8.1 mph - N/A   Clear
10:13 AM 80.8 °F 82.1 °F 63.3 °F 55% 30.07 in 10.0 mi SSW 6.9 mph - N/A   Clear
10:34 AM 81.1 °F 82.5 °F 63.5 °F 55% 30.07 in 10.0 mi SSW 9.2 mph - N/A   Clear
10:54 AM 82.6 °F 83.6 °F 62.8 °F 51% 30.07 in 10.0 mi SSW 8.1 mph - N/A   Clear
11:13 AM 82.4 °F 83.7 °F 63.5 °F 53% 30.07 in 10.0 mi SSW 4.6 mph - N/A   Clear
11:34 AM 82.9 °F 84.0 °F 63.3 °F 51% 30.07 in 10.0 mi SW 6.9 mph - N/A   Clear
11:54 AM 83.7 °F 84.9 °F 63.5 °F 51% 30.06 in 10.0 mi SSW 4.6 mph - N/A   Clear
12:13 PM 83.7 °F 84.5 °F 62.8 °F 49% 30.06 in 10.0 mi South 5.8 mph - N/A   Clear
12:34 PM 84.4 °F 85.4 °F 63.1 °F 49% 30.06 in 10.0 mi SSW 10.4 mph - N/A   Scattered Clouds
12:54 PM 84.6 °F 85.6 °F 63.5 °F 49% 30.06 in 10.0 mi SW 11.5 mph 16.1 mph N/A   Scattered Clouds
1:13 PM 84.2 °F 85.6 °F 64.2 °F 51% 30.06 in 10.0 mi South 8.1 mph 16.1 mph N/A   Clear
1:34 PM 85.1 °F 86.4 °F 64.2 °F 49% 30.05 in 10.0 mi SSE 11.5 mph - N/A   Scattered Clouds
1:54 PM 85.3 °F 86.6 °F 64.0 °F 49% 30.05 in 10.0 mi South 12.7 mph 18.4 mph N/A   Scattered Clouds
2:13 PM 85.1 °F 86.1 °F 63.5 °F 48% 30.04 in 10.0 mi South 11.5 mph 20.7 mph N/A   Clear
2:34 PM 85.3 °F 86.4 °F 63.3 °F 48% 30.04 in 10.0 mi South 13.8 mph 21.9 mph N/A   Clear
2:54 PM 84.6 °F 85.4 °F 62.6 °F 48% 30.03 in 10.0 mi SSE 12.7 mph 18.4 mph N/A   Clear
3:13 PM 84.9 °F 85.6 °F 62.6 °F 47% 30.03 in 10.0 mi SSE 12.7 mph 20.7 mph N/A   Clear
3:34 PM 85.5 °F 86.6 °F 63.5 °F 48% 30.02 in 10.0 mi SSW 12.7 mph 16.1 mph N/A   Clear
3:53 PM 86.2 °F 87.3 °F 63.7 °F 47% 30.02 in 10.0 mi South 13.8 mph 18.4 mph N/A   Clear
4:14 PM 85.3 °F 86.6 °F 63.9 °F 49% 30.01 in 10.0 mi South 11.5 mph 19.6 mph N/A   Clear
4:34 PM 85.3 °F 86.4 °F 63.7 °F 48% 30.01 in 10.0 mi South 11.5 mph - N/A   Scattered Clouds
4:53 PM 85.6 °F 86.8 °F 63.9 °F 48% 30.01 in 10.0 mi SSE 10.4 mph 16.1 mph N/A   Scattered Clouds
5:14 PM 84.6 °F 85.6 °F 63.7 °F 49% 30.00 in 10.0 mi South 11.5 mph 17.3 mph N/A   Clear
5:34 PM 84.2 °F 85.2 °F 63.3 °F 49% 29.99 in 10.0 mi South 11.5 mph - N/A   Clear
5:53 PM 83.3 °F 84.6 °F 64.2 °F 52% 29.99 in 10.0 mi SE 10.4 mph - N/A   Clear
6:14 PM 81.9 °F 83.4 °F 64.4 °F 55% 29.99 in 10.0 mi SE 10.4 mph 16.1 mph N/A   Clear
6:34 PM 82.6 °F 84.1 °F 64.4 °F 54% 29.98 in 10.0 mi SE 8.1 mph - N/A   Clear
6:53 PM 82.9 °F 84.6 °F 64.6 °F 54% 29.98 in 10.0 mi SSE 8.1 mph - N/A   Clear
7:14 PM 82.6 °F 84.3 °F 64.9 °F 55% 29.97 in 10.0 mi South 5.8 mph - N/A   Clear
7:34 PM 82.4 °F 83.9 °F 64.4 °F 54% 29.97 in 10.0 mi South 5.8 mph - N/A   Clear
7:53 PM 80.2 °F 82.3 °F 66.0 °F 62% 29.97 in 10.0 mi SSE 4.6 mph - N/A   Clear
8:14 PM 78.6 °F - 66.2 °F 66% 29.97 in 10.0 mi SE 4.6 mph - N/A   Clear
8:34 PM 76.6 °F - 65.8 °F 69% 29.97 in 10.0 mi SSE 5.8 mph - N/A   Clear
8:53 PM 75.6 °F - 66.2 °F 73% 29.98 in 10.0 mi SSE 4.6 mph - N/A   Clear
9:14 PM 74.5 °F - 66.2 °F 75% 29.98 in 10.0 mi South 3.5 mph - N/A   Clear
9:34 PM 73.9 °F - 66.2 °F 77% 29.98 in 5.0 mi South 3.5 mph - N/A   Haze
9:53 PM 73.8 °F - 66.2 °F 77% 29.99 in 10.0 mi South 4.6 mph - N/A   Clear
10:14 PM 73.6 °F - 66.7 °F 79% 30.00 in 10.0 mi South 8.1 mph - N/A   Clear
10:34 PM 73.4 °F - 67.1 °F 81% 30.00 in 10.0 mi South 8.1 mph - N/A   Clear
10:53 PM 72.9 °F - 66.9 °F 82% 30.00 in 10.0 mi SSW 5.8 mph - N/A   Clear
11:14 PM 72.5 °F - 66.6 °F 82% 29.99 in 10.0 mi SSW 4.6 mph - N/A   Clear
11:34 PM 71.6 °F - 66.6 °F 84% 30.00 in 10.0 mi SSW 3.5 mph - N/A   Clear
11:53 PM 70.9 °F - 66.6 °F 86% 29.99 in 10.0 mi SSW 3.5 mph - N/A   Clear